JST222 YSSY-YMML

Flight info

Callsign JST222
Flight time 1h 6m
Altitude 38000
Route WOL H65 LEECE Q29 ML
Aircraft A20N/M-SDE2E3FGHIRWXY/LB1

Departure

Time 2026-04-30 11:11
Airport Sydney Kingsford Smith International Airport (YSSY)

Arrival

Time 2026-04-30 12:17
Airport Melbourne Airport (YMML)
Time Latitude Longitude Altitude Speed Heading
2026-04-30 10:24 -33.93565 151.17777 34 ft 0 kts 279°
2026-04-30 10:53 -33.93566 151.17785 33 ft 3 kts 279°
2026-04-30 10:54 -33.93569 151.17807 33 ft 3 kts 279°
2026-04-30 10:54 -33.93573 151.17830 33 ft 3 kts 279°
2026-04-30 10:54 -33.93576 151.17852 33 ft 3 kts 279°
2026-04-30 10:54 -33.93577 151.17873 30 ft 3 kts 236°
2026-04-30 10:55 -33.93576 151.17875 31 ft 0 kts 229°
2026-04-30 10:58 -33.93582 151.17866 30 ft 6 kts 229°
2026-04-30 10:58 -33.93623 151.17825 33 ft 7 kts 207°
2026-04-30 10:58 -33.93666 151.17807 33 ft 6 kts 191°
2026-04-30 10:58 -33.93705 151.17799 32 ft 6 kts 189°
2026-04-30 10:59 -33.93755 151.17790 29 ft 11 kts 189°
2026-04-30 10:59 -33.93849 151.17773 27 ft 15 kts 184°
2026-04-30 10:59 -33.93935 151.17793 28 ft 11 kts 140°
2026-04-30 10:59 -33.93991 151.17806 30 ft 18 kts 170°
2026-04-30 11:00 -33.94114 151.17835 26 ft 17 kts 168°
2026-04-30 11:00 -33.94226 151.17864 27 ft 16 kts 168°
2026-04-30 11:00 -33.94334 151.17891 28 ft 15 kts 168°
2026-04-30 11:00 -33.94438 151.17910 27 ft 14 kts 187°
2026-04-30 11:01 -33.94530 151.17886 29 ft 13 kts 175°
2026-04-30 11:01 -33.94600 151.17902 28 ft 14 kts 168°
2026-04-30 11:01 -33.94702 151.17929 27 ft 15 kts 167°
2026-04-30 11:01 -33.94800 151.17957 26 ft 13 kts 169°
2026-04-30 11:02 -33.94890 151.17978 27 ft 12 kts 168°
2026-04-30 11:02 -33.94966 151.17998 26 ft 10 kts 167°
2026-04-30 11:02 -33.95021 151.18012 28 ft 6 kts 169°
2026-04-30 11:02 -33.95065 151.18026 29 ft 14 kts 160°
2026-04-30 11:03 -33.95099 151.18116 28 ft 17 kts 83°
2026-04-30 11:03 -33.95074 151.18267 28 ft 18 kts 78°
2026-04-30 11:03 -33.95051 151.18399 29 ft 9 kts 78°
2026-04-30 11:04 -33.95050 151.18403 29 ft 0 kts 78°
2026-04-30 11:05 -33.95047 151.18418 29 ft 9 kts 78°
2026-04-30 11:05 -33.95079 151.18512 30 ft 15 kts 147°
2026-04-30 11:05 -33.95155 151.18587 29 ft 16 kts 137°
2026-04-30 11:06 -33.95267 151.18692 29 ft 21 kts 152°
2026-04-30 11:06 -33.95401 151.18743 30 ft 21 kts 167°
2026-04-30 11:06 -33.95545 151.18782 28 ft 21 kts 167°
2026-04-30 11:06 -33.95678 151.18817 28 ft 19 kts 167°
2026-04-30 11:07 -33.95802 151.18850 29 ft 18 kts 168°
2026-04-30 11:07 -33.95918 151.18879 30 ft 16 kts 168°
2026-04-30 11:07 -33.96029 151.18908 29 ft 16 kts 168°
2026-04-30 11:07 -33.96142 151.18938 28 ft 17 kts 168°
2026-04-30 11:08 -33.96252 151.18966 29 ft 15 kts 167°
2026-04-30 11:08 -33.96358 151.18994 28 ft 16 kts 168°
2026-04-30 11:08 -33.96515 151.19034 22 ft 31 kts 168°
2026-04-30 11:08 -33.96760 151.19071 22 ft 30 kts 183°
2026-04-30 11:09 -33.96836 151.19074 22 ft 22 kts 172°
2026-04-30 11:09 -33.97004 151.19116 25 ft 24 kts 168°
2026-04-30 11:09 -33.97129 151.19191 27 ft 16 kts 99°
2026-04-30 11:09 -33.97121 151.19263 27 ft 0 kts 78°
2026-04-30 11:10 -33.97109 151.19318 26 ft 21 kts 65°
2026-04-30 11:10 -33.96956 151.19348 22 ft 39 kts 348°
2026-04-30 11:10 -33.96435 151.19215 25 ft 117 kts 348°
2026-04-30 11:11 -33.95419 151.18956 262 ft 162 kts 351°
2026-04-30 11:11 -33.94321 151.18766 1159 ft 155 kts
2026-04-30 11:11 -33.93440 151.19369 1988 ft 154 kts 51°
2026-04-30 11:11 -33.93057 151.20658 2496 ft 179 kts 88°
2026-04-30 11:12 -33.93455 151.22133 3152 ft 192 kts 110°
2026-04-30 11:12 -33.93833 151.23675 3845 ft 196 kts 95°
2026-04-30 11:12 -33.93901 151.25382 4376 ft 211 kts 88°
2026-04-30 11:12 -33.93867 151.27217 4945 ft 228 kts 87°
2026-04-30 11:13 -33.94025 151.29208 5404 ft 254 kts 103°
2026-04-30 11:13 -33.94907 151.31230 5406 ft 301 kts 130°
2026-04-30 11:13 -33.96804 151.32773 5133 ft 361 kts 157°
2026-04-30 11:13 -33.99356 151.33334 5990 ft 352 kts 175°
2026-04-30 11:14 -34.01638 151.33510 8825 ft 305 kts 173°
2026-04-30 11:14 -34.03624 151.33838 10771 ft 276 kts 169°
2026-04-30 11:14 -34.05523 151.33970 11703 ft 278 kts 183°
2026-04-30 11:14 -34.07464 151.33416 12048 ft 299 kts 205°
2026-04-30 11:15 -34.09331 151.32097 12315 ft 322 kts 216°
2026-04-30 11:15 -34.11120 151.30332 12657 ft 342 kts 223°
2026-04-30 11:15 -34.12870 151.28309 13220 ft 353 kts 225°
2026-04-30 11:15 -34.14602 151.26202 14041 ft 355 kts 226°
2026-04-30 11:16 -34.16352 151.24073 14769 ft 359 kts 225°
2026-04-30 11:16 -34.18137 151.21946 15463 ft 363 kts 225°
2026-04-30 11:16 -34.19963 151.19816 16136 ft 367 kts 224°
2026-04-30 11:16 -34.21823 151.17684 16838 ft 371 kts 223°
2026-04-30 11:17 -34.23717 151.15536 17535 ft 374 kts 223°
2026-04-30 11:17 -34.25625 151.13382 18200 ft 378 kts 223°
2026-04-30 11:17 -34.27516 151.11250 18854 ft 382 kts 223°
2026-04-30 11:17 -34.29469 151.09046 19427 ft 386 kts 223°
2026-04-30 11:18 -34.31435 151.06825 20036 ft 388 kts 223°
2026-04-30 11:18 -34.35416 151.02316 21179 ft 395 kts 223°
2026-04-30 11:18 -34.37425 151.00036 21745 ft 398 kts 223°
2026-04-30 11:19 -34.39456 150.97729 22282 ft 402 kts 223°
2026-04-30 11:19 -34.41501 150.95405 22840 ft 405 kts 223°
2026-04-30 11:19 -34.43563 150.93059 23383 ft 408 kts 223°
2026-04-30 11:19 -34.45641 150.90695 23911 ft 412 kts 223°
2026-04-30 11:20 -34.47735 150.88309 24375 ft 415 kts 222°
2026-04-30 11:20 -34.49839 150.85911 24858 ft 417 kts 223°
2026-04-30 11:20 -34.51957 150.83495 25336 ft 418 kts 223°
2026-04-30 11:20 -34.54074 150.81074 25801 ft 420 kts 223°
2026-04-30 11:21 -34.56051 150.78440 26247 ft 423 kts 230°
2026-04-30 11:21 -34.57879 150.75646 26673 ft 425 kts 232°
2026-04-30 11:21 -34.59646 150.72817 27084 ft 427 kts 232°
2026-04-30 11:21 -34.61414 150.69907 27479 ft 429 kts 233°
2026-04-30 11:22 -34.63175 150.66967 27860 ft 431 kts 233°
2026-04-30 11:22 -34.64940 150.64008 28247 ft 433 kts 233°
2026-04-30 11:22 -34.66712 150.61039 28639 ft 435 kts 233°
2026-04-30 11:22 -34.68496 150.58055 29011 ft 438 kts 232°
2026-04-30 11:23 -34.70287 150.55063 29382 ft 440 kts 233°
2026-04-30 11:23 -34.72093 150.52051 29747 ft 442 kts 233°
2026-04-30 11:23 -34.75730 150.45983 30472 ft 445 kts 232°
2026-04-30 11:24 -34.77563 150.42920 30758 ft 448 kts 233°
2026-04-30 11:24 -34.79395 150.39856 31067 ft 449 kts 233°
2026-04-30 11:24 -34.81232 150.36783 31484 ft 448 kts 233°
2026-04-30 11:25 -34.84879 150.30670 32292 ft 445 kts 233°
2026-04-30 11:25 -34.86694 150.27625 32672 ft 444 kts 233°
2026-04-30 11:25 -34.90311 150.21548 33394 ft 442 kts 233°
2026-04-30 11:26 -34.93903 150.15503 34092 ft 440 kts 233°
2026-04-30 11:26 -34.95695 150.12483 34426 ft 439 kts 233°
2026-04-30 11:26 -34.97462 150.09504 34704 ft 438 kts 233°
2026-04-30 11:27 -34.99263 150.06464 34995 ft 437 kts 233°
2026-04-30 11:27 -35.01014 150.03507 35291 ft 435 kts 234°
2026-04-30 11:27 -35.02781 150.00519 35585 ft 433 kts 234°
2026-04-30 11:27 -35.04543 149.97537 35864 ft 431 kts 234°
2026-04-30 11:28 -35.08041 149.91610 36380 ft 429 kts 234°
2026-04-30 11:28 -35.09779 149.88662 36630 ft 428 kts 234°
2026-04-30 11:28 -35.11518 149.85709 36869 ft 427 kts 234°
2026-04-30 11:29 -35.13244 149.82775 37105 ft 425 kts 234°
2026-04-30 11:29 -35.14970 149.79839 37333 ft 425 kts 234°
2026-04-30 11:29 -35.18406 149.73987 37762 ft 422 kts 234°
2026-04-30 11:30 -35.21823 149.68158 38181 ft 420 kts 234°
2026-04-30 11:30 -35.22949 149.66236 38313 ft 420 kts 234°
2026-04-30 11:30 -35.24649 149.63329 38449 ft 420 kts 235°
2026-04-30 11:31 -35.26925 149.59437 38467 ft 422 kts 235°
2026-04-30 11:31 -35.29784 149.54541 38456 ft 428 kts 235°
2026-04-30 11:32 -35.33275 149.48552 38458 ft 435 kts 235°
2026-04-30 11:32 -35.36770 149.42548 38463 ft 424 kts 235°
2026-04-30 11:33 -35.41830 149.33835 38468 ft 419 kts 235°
2026-04-30 11:33 -35.45203 149.28015 38462 ft 419 kts 235°
2026-04-30 11:34 -35.48579 149.22179 38468 ft 419 kts 235°
2026-04-30 11:34 -35.51966 149.16315 38462 ft 424 kts 235°
2026-04-30 11:35 -35.55402 149.10355 38475 ft 432 kts 235°
2026-04-30 11:35 -35.58904 149.04271 38487 ft 439 kts 236°
2026-04-30 11:36 -35.62459 148.98085 38483 ft 446 kts 236°
2026-04-30 11:36 -35.65960 148.91986 38505 ft 424 kts 236°
2026-04-30 11:37 -35.69361 148.86047 38498 ft 428 kts 236°
2026-04-30 11:37 -35.72821 148.79990 38496 ft 436 kts 236°
2026-04-30 11:38 -35.76314 148.73867 38496 ft 443 kts 236°
2026-04-30 11:38 -35.79781 148.67786 38501 ft 422 kts 236°
2026-04-30 11:39 -35.83122 148.61914 38500 ft 417 kts 237°
2026-04-30 11:39 -35.86458 148.56035 38494 ft 418 kts 237°
2026-04-30 11:40 -35.89789 148.50147 38495 ft 418 kts 237°
2026-04-30 11:40 -35.93107 148.44257 38489 ft 419 kts 237°
2026-04-30 11:41 -35.96433 148.38342 38486 ft 420 kts 237°
2026-04-30 11:41 -35.99757 148.32423 38476 ft 420 kts 237°
2026-04-30 11:42 -36.03085 148.26487 38473 ft 420 kts 237°
2026-04-30 11:42 -36.06384 148.20592 38459 ft 420 kts 237°
2026-04-30 11:43 -36.09707 148.14646 38455 ft 421 kts 238°
2026-04-30 11:43 -36.13041 148.08674 38453 ft 422 kts 238°
2026-04-30 11:44 -36.16403 148.02661 38445 ft 422 kts 238°
2026-04-30 11:44 -36.19718 147.96727 38447 ft 422 kts 238°
2026-04-30 11:45 -36.23054 147.90742 38441 ft 422 kts 238°
2026-04-30 11:45 -36.26399 147.84730 38447 ft 424 kts 238°
2026-04-30 11:46 -36.29743 147.78707 38438 ft 424 kts 238°
2026-04-30 11:46 -36.33090 147.72671 38444 ft 425 kts 238°
2026-04-30 11:47 -36.36430 147.66625 38439 ft 424 kts 238°
2026-04-30 11:47 -36.39743 147.60611 38442 ft 425 kts 239°
2026-04-30 11:48 -36.43087 147.54530 38441 ft 426 kts 239°
2026-04-30 11:48 -36.46425 147.48450 38440 ft 426 kts 239°
2026-04-30 11:49 -36.49763 147.42361 38443 ft 426 kts 239°
2026-04-30 11:49 -36.53099 147.36265 38431 ft 426 kts 239°
2026-04-30 11:50 -36.56434 147.30160 38437 ft 427 kts 239°
2026-04-30 11:50 -36.59774 147.24034 38436 ft 427 kts 239°
2026-04-30 11:51 -36.63103 147.17918 38430 ft 427 kts 239°
2026-04-30 11:51 -36.66425 147.11801 38430 ft 427 kts 239°
2026-04-30 11:52 -36.69753 147.05666 38132 ft 427 kts 239°
2026-04-30 11:52 -36.71417 147.02594 37860 ft 428 kts 239°
2026-04-30 11:52 -36.73083 146.99514 37593 ft 429 kts 239°
2026-04-30 11:53 -36.74730 146.96466 37333 ft 430 kts 239°
2026-04-30 11:53 -36.76401 146.93370 37070 ft 431 kts 239°
2026-04-30 11:53 -36.78076 146.90265 36800 ft 432 kts 239°
2026-04-30 11:53 -36.79754 146.87153 36568 ft 433 kts 240°
2026-04-30 11:54 -36.81432 146.84037 36026 ft 433 kts 240°
2026-04-30 11:54 -36.83121 146.80894 35318 ft 438 kts 240°
2026-04-30 11:54 -36.84824 146.77726 34659 ft 441 kts 240°
2026-04-30 11:54 -36.86534 146.74539 33919 ft 444 kts 240°
2026-04-30 11:55 -36.88257 146.71327 33295 ft 444 kts 240°
2026-04-30 11:55 -36.89969 146.68138 32831 ft 440 kts 240°
2026-04-30 11:55 -36.91670 146.64967 32340 ft 438 kts 240°
2026-04-30 11:55 -36.93360 146.61810 31826 ft 436 kts 240°
2026-04-30 11:56 -36.95041 146.58667 31320 ft 434 kts 240°
2026-04-30 11:56 -36.96710 146.55542 30818 ft 432 kts 240°
2026-04-30 11:56 -36.98377 146.52418 30282 ft 431 kts 240°
2026-04-30 11:56 -37.00033 146.49311 29712 ft 428 kts 240°
2026-04-30 11:57 -37.01683 146.46213 29204 ft 425 kts 240°
2026-04-30 11:57 -37.03318 146.43140 28696 ft 423 kts 240°
2026-04-30 11:57 -37.04943 146.40083 28190 ft 420 kts 240°
2026-04-30 11:57 -37.06557 146.37042 27697 ft 418 kts 240°
2026-04-30 11:58 -37.08163 146.34015 27175 ft 417 kts 240°
2026-04-30 11:58 -37.09762 146.30998 26664 ft 414 kts 240°
2026-04-30 11:58 -37.11333 146.28034 26154 ft 413 kts 240°
2026-04-30 11:58 -37.12921 146.25031 25650 ft 411 kts 240°
2026-04-30 11:59 -37.14500 146.22045 25144 ft 410 kts 240°
2026-04-30 11:59 -37.16064 146.19083 24692 ft 407 kts 240°
2026-04-30 11:59 -37.17622 146.16132 24255 ft 404 kts 240°
2026-04-30 11:59 -37.19168 146.13201 23786 ft 402 kts 240°
2026-04-30 12:00 -37.20698 146.10299 23337 ft 397 kts 240°
2026-04-30 12:00 -37.22216 146.07415 22803 ft 394 kts 240°
2026-04-30 12:00 -37.23719 146.04558 22306 ft 391 kts 240°
2026-04-30 12:00 -37.25218 146.01703 21691 ft 392 kts 240°
2026-04-30 12:01 -37.26711 145.98859 21246 ft 387 kts 240°
2026-04-30 12:01 -37.28190 145.96041 20764 ft 384 kts 240°
2026-04-30 12:01 -37.29655 145.93247 20261 ft 382 kts 240°
2026-04-30 12:01 -37.31114 145.90464 19801 ft 379 kts 240°
2026-04-30 12:02 -37.32561 145.87707 19339 ft 376 kts 240°
2026-04-30 12:02 -37.33995 145.84974 18850 ft 375 kts 240°
2026-04-30 12:02 -37.35425 145.82248 18370 ft 372 kts 240°
2026-04-30 12:02 -37.36843 145.79543 17865 ft 369 kts 240°
2026-04-30 12:03 -37.38247 145.76861 17403 ft 365 kts 240°
2026-04-30 12:03 -37.41019 145.71562 16429 ft 360 kts 240°
2026-04-30 12:03 -37.42388 145.68941 15943 ft 357 kts 240°
2026-04-30 12:04 -37.43742 145.66347 15521 ft 353 kts 240°
2026-04-30 12:04 -37.45105 145.63782 15011 ft 351 kts 238°
2026-04-30 12:04 -37.46524 145.61292 14542 ft 349 kts 237°
2026-04-30 12:04 -37.47955 145.58834 14080 ft 347 kts 237°
2026-04-30 12:05 -37.49380 145.56389 13557 ft 345 kts 237°
2026-04-30 12:05 -37.50779 145.53987 13073 ft 342 kts 237°
2026-04-30 12:05 -37.52180 145.51579 12555 ft 340 kts 237°
2026-04-30 12:05 -37.53576 145.49174 12040 ft 339 kts 237°
2026-04-30 12:06 -37.54959 145.46790 11571 ft 336 kts 237°
2026-04-30 12:06 -37.56329 145.44425 11156 ft 332 kts 237°
2026-04-30 12:06 -37.57687 145.42079 10695 ft 329 kts 237°
2026-04-30 12:06 -37.59022 145.39776 10450 ft 320 kts 237°
2026-04-30 12:07 -37.60314 145.37546 10260 ft 309 kts 237°
2026-04-30 12:07 -37.61561 145.35391 10091 ft 298 kts 237°
2026-04-30 12:07 -37.62764 145.33311 9825 ft 290 kts 237°
2026-04-30 12:07 -37.63949 145.31256 9369 ft 290 kts 237°
2026-04-30 12:08 -37.65135 145.29197 8950 ft 289 kts 237°
2026-04-30 12:08 -37.66314 145.27151 8546 ft 287 kts 238°
2026-04-30 12:08 -37.67487 145.25112 8115 ft 287 kts 238°
2026-04-30 12:08 -37.68646 145.23099 7757 ft 285 kts 238°
2026-04-30 12:09 -37.69801 145.21094 7414 ft 282 kts 238°
2026-04-30 12:09 -37.70952 145.19093 6989 ft 282 kts 238°
2026-04-30 12:09 -37.72101 145.17093 6593 ft 281 kts 238°
2026-04-30 12:09 -37.73242 145.15107 6244 ft 277 kts 238°
2026-04-30 12:10 -37.74362 145.13160 5979 ft 270 kts 239°
2026-04-30 12:10 -37.75444 145.11279 5814 ft 261 kts 239°
2026-04-30 12:10 -37.76502 145.09435 5489 ft 259 kts 239°
2026-04-30 12:10 -37.77569 145.07568 5024 ft 263 kts 239°
2026-04-30 12:11 -37.78636 145.05703 4682 ft 262 kts 239°
2026-04-30 12:11 -37.79700 145.03842 4343 ft 261 kts 239°
2026-04-30 12:11 -37.80753 145.01984 4058 ft 257 kts 242°
2026-04-30 12:11 -37.81500 144.99995 3792 ft 246 kts 258°
2026-04-30 12:12 -37.81928 144.97909 3458 ft 244 kts 263°
2026-04-30 12:12 -37.82288 144.95819 3182 ft 243 kts 264°
2026-04-30 12:12 -37.82590 144.93770 2977 ft 239 kts 266°
2026-04-30 12:12 -37.82853 144.91670 2776 ft 239 kts 267°
2026-04-30 12:13 -37.83087 144.89688 2903 ft 216 kts 272°
2026-04-30 12:13 -37.82910 144.87937 2985 ft 196 kts 303°
2026-04-30 12:13 -37.82002 144.86750 2995 ft 185 kts 339°
2026-04-30 12:13 -37.80787 144.86310 2994 ft 185 kts 351°
2026-04-30 12:14 -37.79511 144.86070 2990 ft 185 kts 353°
2026-04-30 12:14 -37.78286 144.85866 2788 ft 173 kts 353°
2026-04-30 12:14 -37.77128 144.85662 2482 ft 167 kts 353°
2026-04-30 12:14 -37.75939 144.85454 1909 ft 175 kts 353°
2026-04-30 12:15 -37.74718 144.85236 1368 ft 181 kts 353°
2026-04-30 12:15 -37.73477 144.85008 1016 ft 175 kts 352°
2026-04-30 12:15 -37.72345 144.84802 928 ft 159 kts 353°
2026-04-30 12:15 -37.71283 144.84609 799 ft 152 kts 351°
2026-04-30 12:16 -37.70246 144.84410 682 ft 147 kts 352°
2026-04-30 12:16 -37.69260 144.84220 505 ft 141 kts 353°
2026-04-30 12:16 -37.68303 144.84045 362 ft 134 kts 352°
2026-04-30 12:16 -37.67781 144.83951 363 ft 84 kts 352°
2026-04-30 12:17 -37.66957 144.83857 390 ft 23 kts 17°
2026-04-30 12:17 -37.66870 144.83899 393 ft 17 kts 21°
2026-04-30 12:17 -37.66829 144.83919 390 ft 0 kts 21°
2026-04-30 12:19 -37.66788 144.83940 394 ft 13 kts 25°
2026-04-30 12:19 -37.66719 144.84058 392 ft 20 kts 86°
2026-04-30 12:20 -37.66791 144.84193 393 ft 16 kts 167°
2026-04-30 12:20 -37.66906 144.84214 391 ft 18 kts 171°
2026-04-30 12:20 -37.67031 144.84237 388 ft 19 kts 172°
2026-04-30 12:20 -37.67164 144.84262 385 ft 20 kts 171°
2026-04-30 12:21 -37.67302 144.84287 383 ft 20 kts 172°
2026-04-30 12:21 -37.67444 144.84314 380 ft 20 kts 169°
2026-04-30 12:21 -37.67475 144.84398 380 ft 9 kts 82°
2026-04-30 12:21 -37.67468 144.84481 381 ft 11 kts 96°
2026-04-30 12:22 -37.67513 144.84542 381 ft 14 kts 162°
2026-04-30 12:22 -37.67644 144.84569 376 ft 23 kts 172°
2026-04-30 12:22 -37.67740 144.84646 373 ft 17 kts 92°
2026-04-30 12:22 -37.67727 144.84763 375 ft 4 kts 47°
2026-04-30 12:23 -37.67702 144.84764 376 ft 4 kts 353°
2026-04-30 12:23 -37.67672 144.84759 377 ft 7 kts 351°
2026-04-30 12:23 -37.67635 144.84752 379 ft 2 kts 352°
2026-04-30 12:23 -37.67633 144.84751 379 ft 0 kts 352°
2026-04-30 12:24 -37.67629 144.84751 379 ft 0 kts 353°
2026-04-30 12:24 -37.67626 144.84750 379 ft 0 kts 353°